Regional Weather Roundup
Issued by NWS

Home | Current Version | Previous Version | Graphics & Text | Print | Product List | Glossary On
Versions: 1 2 3 4 5 6 7 8 9 10 11 12 13 14 15 16 17 18 19 20 21 22 23 24 25 26 27
000
ASUS45 KBOU 290207
RWRCO

WEATHER ROUNDUP FOR COLORADO
NATIONAL WEATHER SERVICE DENVER/BOULDER CO
800 PM MDT THU JUL 28 2016

NOTE: "FAIR" INDICATES FEW OR NO CLOUDS BELOW 12000 FEET WITH NO
SIGNIFICANT WEATHER AND/OR OBSTRUCTIONS TO VISIBILITY.

COZ001>005-013-030-031-290300-
...NORTHWEST COLORADO...

CITY           SKY/WX    TMP DP  RH WIND       PRES   REMARKS
CRAIG          FAIR      81  29  15 NW6       30.13S
HAYDEN         FAIR      84  28  13 NW8       30.16F
MEEKER         FAIR      84  35  17 N7        30.15S
MOUNT WERNER   NOT AVBL
STEAMBOAT SPGS FAIR      77  42  28 E3        30.19F
WALDEN         FAIR      70  43  37 NE8       30.33S
$$

COZ006>008-011-290300-
...WEST CENTRAL VALLEYS...

CITY           SKY/WX    TMP DP  RH WIND       PRES   REMARKS
GRAND JUNCTION FAIR      93  26   9 W5        29.98F
MONTROSE       FAIR      87  39  18 S7        30.10S
EAGLE          FAIR      88  28  11 NW10G17   30.17S
RIFLE          FAIR      90  28  11 NW7       30.05R
DELTA          NOT AVBL
NUCLA          NOT AVBL
$$

COZ017>023-064>068-290300-
...SOUTHWEST COLORADO...

CITY           SKY/WX    TMP DP  RH WIND       PRES   REMARKS
DURANGO        FAIR      83  32  16 N5        30.19R
CORTEZ         FAIR      82  43  25 NW6       30.11S
PAGOSA SPRINGS FAIR      81  28  14 NW3       30.29S
TELLURIDE      FAIR      74  31  20 CALM      30.44S
WOLF CREEK PAS CLOUDY    59  34  38 W5        30.71S
$$

COZ009-010-012-014-032>034-037-058>063-290300-
...CENTRAL COLORADO...

CITY           SKY/WX    TMP DP  RH WIND       PRES   REMARKS
ASPEN          FAIR      70  41  34 SW8       30.28S
BUENA VISTA    FAIR      76  21  13 W10       30.30S
COPPER MTN     MOCLDY    61  19  20 W12G33    30.69S
BERTHOUD PASS  HAZE      45  32  61 E6        30.72S VSB 1
COTTONWOOD PAS FAIR      73   9   8 W6        30.49R
GUNNISON       FAIR      79  28  15 N6        30.31R
KREMMLING      FAIR      79  21  11 N8        30.26S
LEADVILLE      FAIR      69  22  16 N6        30.47F
MONARCH PASS   FAIR      61  23  23 MISG      30.79S
SALIDA         FAIR      82  33  17 E9G16     30.33R
SUNLIGHT       NOT AVBL
WILKERSON PASS CLOUDY    59  32  36 W7G17     30.65R
$$

COZ069>075-290300-
...SAN LUIS VALLEY/SANGRE DE CRISTO MOUNTAINS...

CITY           SKY/WX    TMP DP  RH WIND       PRES   REMARKS
ALAMOSA        FAIR      73  44  35 S7        30.24R
LA VETA PASS   MOCLDY    63  32  31 S3        30.52S
SAGUACHE       FAIR      81  25  12 N9        30.28S
$$

COZ035-036-038>040-290300-
...NORTHERN COLORADO FRONT RANGE...

CITY           SKY/WX    TMP DP  RH WIND       PRES   REMARKS
DENVER INTL AP FAIR      74  55  51 NE18      30.20R
DMNS CITY PARK   N/A     73  56  55 NE12G17   30.21R
AURORA         NOT AVBL
FRONT RANGE AP MOCLDY    75  59  57 NE15G22   30.22R
ERIE MUNI ARPT MOCLDY    74  54  49 NE6       30.21R
BOULDER MUN AP CLOUDY    73  55  53 NE9       30.22R
CENTENNIAL     MOCLDY    74  56  53 E13G23    30.22R
BROOMFIELD     NOT AVBL
LONGMONT       NOT AVBL
$$

COZ041-046-047-076>085-087-088-290300-
...PIKES PEAK/PALMER DIVIDE AND SOUTHERN FOOTHILLS...

CITY           SKY/WX    TMP DP  RH WIND       PRES   REMARKS
COLO. SPRINGS  MOCLDY    80  56  43 NE20G25   30.21R
A. F. ACADEMY  FAIR      76  55  47 NE13      30.23
SCHRIEVER AFB  NOT AVBL
ELLICOTT       NOT AVBL
FALCON         NOT AVBL
FORT CARSON    FAIR      76  58  54 N9        30.17R
LIMON          FAIR      71  61  70 NE22      30.19R
MONUMENT HILL  FAIR      68  55  64 NE14      30.31S
TRINIDAD       NOT AVBL
$$

COZ042>045-048>051-090-091-290300-
...NORTHEAST COLORADO...

CITY           SKY/WX    TMP DP  RH WIND       PRES   REMARKS
GREELEY ARPT   FAIR      72  57  60 E6        30.18F
AKRON          MOCLDY    68  60  75 S12       30.17F
BURLINGTON     FAIR      71  61  70 NE13      30.14R
WRAY           MOCLDY    72  59  64 NE7       30.16
STERLING       NOT AVBL
HOLYOKE        NOT AVBL
FORT MORGAN    NOT AVBL
$$

COZ086-089-092>099-290300-
...SOUTHEAST COLORADO...

CITY           SKY/WX    TMP DP  RH WIND       PRES   REMARKS
PUEBLO         LGT RAIN  78  59  51 E17       30.04R
LA JUNTA       FAIR      87  54  32 SE12      30.00R
LAMAR          FAIR      81  57  43 E10       29.99R
SPRINGFIELD      N/A     77  57  50 S14       30.02F
$$




USA.gov is the U.S. government's official web portal to all federal, state and local government web resources and services.